Tacoma, WA
on Monday, January 14, 2013

Monday
Previous Day Next Day
Daily Summary
 ActualAverage (KSEA)Record (KSEA)
Temperature
Mean Temperature °F 42°F  
Max Temperature 35°F 47°F 59°F (1968)
Min Temperature 18°F 37°F 8°F (1950)
Degree Days
Heating Degree Days 38 23  
Month to date heating degree days 330  
Since 1 July heating degree days 2268  
Cooling Degree Days 0 0  
Month to date cooling degree days 0  
Year to date cooling degree days 0  
Moisture
Dew Point 26°F   
Average Humidity 89    
Maximum Humidity 100    
Minimum Humidity 73    
Precipitation
Precipitation 0.00 in 0.19 in 1.61 in (1988)
Month to date precipitation 2.64  
Year to date precipitation 2.64  
Snow
Snow 0.00 in in 4.00 in (1950)
Month to date snowfall  
Since 1 July snowfall  
Snow Depth in   
Wind
Wind Speed 2 mph   
Max Wind Speed 5 mph   
Max Gust Speed mph   
Visibility 10 miles   
Events     

Key: T is trace of precipitation, MM is missing value
Source: NWS Daily Summary
Time(PST)TemperatureDew PointHumidity Pressure Visibility Wind DirectionWind SpeedGust SpeedPrecipitationEvents Conditions
12:58 AM 19.8°F 18.5°F 95% 30.50 in 10.0 miles Calm Calm - N/A   Clear
1:58 AM 20.5°F 19.6°F 96% 30.51 in 10.0 miles ESE 3.5 mph - N/A   Clear
2:58 AM 19.9°F 18.9°F 96% 30.52 in 10.0 miles SE 1.2 mph - N/A   Clear
3:58 AM 19.4°F 18.5°F 96% 30.52 in 10.0 miles ESE 2.3 mph - N/A   Clear
4:58 AM 19.2°F 17.6°F 93% 30.51 in 10.0 miles South 2.3 mph - N/A   Clear
5:58 AM 18.9°F 17.4°F 94% 30.51 in 10.0 miles South 2.3 mph - N/A   Clear
6:58 AM 19.8°F 18.3°F 94% 30.53 in 10.0 miles Calm Calm - N/A   Overcast
7:58 AM 19.9°F 18.3°F 93% 30.53 in 10.0 miles Calm Calm - N/A   Partly Cloudy
8:58 AM 22.3°F 20.8°F 94% 30.54 in 10.0 miles South 1.2 mph - N/A   Partly Cloudy
9:58 AM 27.3°F 26.2°F 96% 30.54 in 10.0 miles Calm Calm - N/A   Clear
10:58 AM 29.7°F 25.9°F 86% 30.54 in 10.0 miles SSW 2.3 mph - N/A   Overcast
11:17 AM 32.0°F 26.6°F 80% 30.51 in 10.0 miles South 2.3 mph - N/A   Overcast
11:26 AM 32.0°F 26.6°F 80% 30.50 in 10.0 miles SW 2.3 mph - N/A   Overcast
11:33 AM 32.0°F 26.6°F 80% 30.51 in 10.0 miles SW 2.3 mph - N/A   Overcast
11:53 AM 32.0°F 28.4°F 87% 30.50 in 10.0 miles South 1.2 mph - N/A   Scattered Clouds
11:59 AM 32.2°F 27.5°F 83% 30.53 in 10.0 miles Calm Calm - 0.00 in   Partly Cloudy
12:10 PM 32.0°F 28.4°F 87% 30.50 in 10.0 miles WSW 2.3 mph - N/A   Clear
12:12 PM 32.0°F 28.4°F 87% 30.50 in 10.0 miles WSW 2.3 mph - N/A   Clear
12:58 PM 34.9°F 27.1°F 73% 30.53 in 10.0 miles Calm Calm - 0.00 in   Clear
1:58 PM 35.6°F 28.0°F 74% 30.53 in 10.0 miles WSW 3.5 mph - N/A   Overcast
2:48 PM 35.6°F 28.4°F 75% 30.51 in 10.0 miles SW 4.6 mph - N/A   Overcast
2:58 PM 35.2°F 28.6°F 77% 30.54 in 10.0 miles WSW 2.3 mph - N/A   Overcast
3:58 PM 35.4°F 27.7°F 73% 30.55 in 10.0 miles NW 1.2 mph - N/A   Overcast
4:08 PM 35.6°F 28.4°F 75% 30.51 in 10.0 miles Calm Calm - N/A   Mostly Cloudy
4:48 PM 33.8°F 28.4°F 81% 30.51 in 10.0 miles Variable 2.3 mph - N/A   Mostly Cloudy
4:58 PM 34.2°F 27.5°F 77% 30.54 in 10.0 miles West 2.3 mph - N/A   Mostly Cloudy
5:03 PM 32.0°F 28.4°F 87% 30.51 in 10.0 miles WNW 2.3 mph - N/A   Overcast
5:58 PM 33.6°F 30.7°F 89% 30.56 in 10.0 miles North 4.6 mph - N/A   Overcast
6:33 PM 32.0°F 32.0°F 100% 30.52 in 10.0 miles NNW 1.2 mph - N/A   Overcast
6:58 PM 33.6°F 31.8°F 93% 30.56 in 10.0 miles Calm Calm - N/A   Overcast
7:58 PM 34.0°F 32.0°F 92% 30.57 in 10.0 miles Calm Calm - N/A   Overcast
8:43 PM 32.0°F 32.0°F 100% 30.55 in 10.0 miles South 2.3 mph - N/A   Scattered Clouds
8:58 PM 32.2°F 30.7°F 94% 30.58 in 10.0 miles SE 1.2 mph - N/A   Partly Cloudy
9:08 PM 32.0°F 32.0°F 100% 30.55 in 10.0 miles SSE 1.2 mph - N/A   Mostly Cloudy
9:58 PM 30.2°F 29.8°F 99% 30.57 in 10.0 miles Calm Calm - N/A   Overcast
10:58 PM 29.3°F 29.1°F 99% 30.58 in 10.0 miles SSE 2.3 mph - N/A   Overcast
11:28 PM 28.4°F 28.4°F 100% 30.57 in 10.0 miles South 2.3 mph - N/A   Mostly Cloudy
11:58 PM 28.9°F 28.8°F 99% 30.58 in 10.0 miles SSE 2.3 mph - N/A   Overcast
Moon Phase
Jan. 14 Jan. 18 Jan. 26 Feb. 03 Feb. 10
Sunrise:07:52 AM (PST) Moon Rise:09:12 AM (PST)1/14
Sunset:04:46 PM (PST) Moon Set:08:56 PM (PST)1/14

Copyright © 2014 The Weather Underground, Inc.